RH
53 36 32 40 82 65 44 34 22 24 23 18 16 22 32 37 39 47 26 28 31 33 46 56 77 77 77 77 73 75 76 76 76 76 75 74 74 74 72 73 74 73 73 74 74 73 72 73 74
29 30 39 52 81 55 40 27 27 23 19 19 21 24 36 40 27 30 31 30 29 30 34 46 79 73 74 76 74 73 73 75 75 75 75 73 74 74 71 72 72 73 72 70 68 67 66 70 71
38 31 65 79 74 65 39 27 24 20 20 24 29 34 35 35 28 27 27 28 33 47 45 56 73 70 69 70 72 72 72 73 75 73 70 74 74 74 71 72 72 71 74 72 72 69 69 68 70
38 53 46 71 57 49 28 24 21 23 26 26 33 44 27 27 27 25 26 31 38 41 44 63 72 75 74 69 71 71 70 74 73 73 71 72 73 73 69 69 70 69 70 70 70 71 71 69 70
43 58 72 70 52 39 23 21 22 30 30 32 30 35 35 30 25 26 31 36 42 40 37 47 76 75 74 73 69 69 70 74 74 73 72 72 74 72 71 73 72 70 69 69 71 71 71 69 70
62 54 72 72 76 39 22 21 22 29 32 34 35 36 38 28 28 28 35 30 21 25 34 44 72 74 73 72 72 73 74 73 72 72 75 74 75 73 70 71 68 68 69 69 70 70 70 69 70
57 67 64 73 89 61 28 23 24 32 34 32 26 40 34 30 28 28 33 21 23 33 38 40 45 66 72 72 72 73 73 73 73 73 72 76 74 72 70 69 68 68 68 68 68 69 70 68 70
53 54 62 57 81 75 38 28 32 33 39 24 23 40 39 33 27 25 22 25 36 44 43 70 47 48 54 51 72 72 71 71 70 70 71 73 72 70 72 74 71 67 66 66 66 69 70 70 71
44 73 64 62 65 70 43 41 34 36 32 28 27 28 29 28 25 25 27 27 35 40 54 37 56 48 65 58 61 67 69 71 72 67 71 71 46 48 55 72 69 66 66 68 68 68 69 70 73
48 72 62 47 56 67 43 41 42 38 36 34 29 28 29 28 28 28 29 29 33 45 41 44 37 42 53 39 54 52 50 52 43 44 71 59 49 80 45 63 68 66 68 70 68 66 69 70 44
40 60 57 58 61 48 43 39 33 36 43 31 35 34 31 29 28 26 27 26 28 43 46 44 49 58 45 48 43 44 48 42 47 61 72 51 54 44 35 46 47 50 65 56 61 52 42 33 26
48 43 50 59 61 52 41 37 40 39 34 29 31 30 30 29 25 24 25 26 28 32 45 38 36 63 53 34 33 48 52 44 50 65 53 49 54 38 37 35 43 46 53 41 91 34 38 36 34
42 44 50 56 66 56 45 48 43 38 30 29 29 29 28 26 24 24 24 27 29 32 37 34 41 73 47 40 37 50 44 62 44 40 41 74 58 43 40 42 38 46 48 36 47 36 37 37 33
38 50 55 59 72 60 52 48 39 36 30 30 29 28 25 24 23 26 27 30 31 32 34 35 56 65 46 45 48 54 61 42 48 38 41 52 38 51 42 42 37 37 46 48 50 46 34 32 30
49 59 62 72 71 69 53 51 53 34 29 31 28 27 24 23 25 28 28 30 31 32 35 42 49 40 46 48 48 58 34 45 56 42 48 49 47 51 49 40 38 37 44 48 41 38 33 27 27
48 57 75 76 79 83 68 70 69 36 32 30 27 25 25 26 27 28 27 27 32 36 42 39 31 38 42 47 46 61 59 61 57 40 44 48 52 52 54 40 38 40 45 42 32 35 28 27 27
44 56 75 89 83 86 76 69 66 51 30 28 27 25 27 31 32 30 26 28 32 39 43 40 40 44 44 54 58 57 48 60 58 57 45 52 51 53 44 36 45 55 43 34 37 32 51 30 27
38 48 57 85 86 86 85 74 75 66 37 31 28 27 34 36 32 29 27 28 32 39 42 41 39 49 52 47 52 62 62 62 40 63 64 52 49 51 51 43 47 57 42 36 47 60 36 35 32
39 42 68 61 75 85 91 88 74 60 62 42 34 32 36 36 31 30 27 28 32 38 43 63 63 57 50 48 61 65 65 63 64 66 49 52 49 53 57 61 49 54 70 58 44 48 47 36 33
25 74 76 65 79 82 93 90 81 82 51 47 45 33 33 33 32 31 29 28 29 37 45 68 58 58 57 45 68 58 69 60 66 66 51 49 54 55 50 66 51 73 43 52 53 55 36 31 35
19 48 63 64 77 78 87 94 92 71 63 54 39 35 35 35 32 31 39 30 30 36 42 50 63 60 60 79 50 55 59 60 52 61 46 49 51 50 56 53 65 54 55 46 52 45 53 48 36
25 32 54 57 57 72 52 96 91 87 75 71 56 35 34 32 39 29 34 40 33 35 37 49 53 62 54 60 73 63 55 65 51 47 45 56 50 48 51 52 54 60 94 60 48 41 57 62 42
24 18 79 40 41 50 59 70 97 90 84 66 56 44 33 29 32 32 33 38 37 34 35 40 52 60 59 60 64 54 70 50 42 54 68 61 58 51 47 56 57 60 59 56 58 54 63 43 62
18 21 28 36 36 44 46 48 78 85 77 62 54 44 37 45 27 48 32 40 41 30 31 38 52 61 60 60 61 68 82 78 80 51 51 47 56 48 53 50 57 60 57 55 51 55 56 63 60
19 24 58 74 51 45 38 38 44 53 41 42 45 50 36 39 37 32 40 40 37 35 31 36 52 62 59 59 57 58 60 57 59 59 51 64 57 62 58 57 61 54 61 55 55 62 61 54 56
20 21 54 57 52 50 28 37 58 34 34 39 34 47 46 31 32 34 38 52 31 32 33 34 49 59 58 55 59 58 61 49 47 53 88 41 47 44 67 54 54 54 54 55 58 50 49 52 48
17 24 20 44 26 34 42 30 39 31 34 33 35 43 42 35 28 25 30 33 33 35 36 38 50 55 54 50 56 60 60 58 54 71 57 66 52 51 50 49 53 53 55 55 59 51 53 56 55
11 13 20 22 39 48 52 58 30 44 38 34 33 43 36 37 39 36 24 26 42 31 33 36 43 51 50 47 50 51 52 55 56 55 59 70 94 60 59 53 51 55 55 56 60 58 55 57 50
11 12 14 14 18 31 41 51 33 42 40 40 33 33 42 36 36 33 30 37 33 38 44 37 42 50 50 47 49 49 46 46 51 53 54 55 55 58 60 59 57 57 57 56 62 68 66 57 58
8 10 10 14 23 15 17 50 33 31 34 33 32 31 30 37 34 33 31 36 42 46 50 52 44 47 50 57 57 51 49 48 45 50 52 53 60 59 60 59 62 60 57 69 61 58 56 60 58
Wind_Speed
10 13 10 7 3 6 12 16 17 16 16 14 8 13 17 15 12 15 19 17 17 18 15 12 10 10 11 11 10 10 11 11 11 13 12 13 14 15 14 16 15 15 16 16 15 15 14 16 14
14 4 6 5 4 7 12 14 17 13 15 13 13 12 18 16 18 21 16 17 16 18 16 14 10 10 10 9 10 9 10 10 10 11 11 11 13 15 13 15 14 15 15 16 16 15 15 14 14
17 7 3 3 2 2 14 13 16 19 15 14 8 18 13 18 19 15 20 16 17 16 15 14 11 10 9 9 9 9 9 10 10 11 11 12 13 14 13 15 14 15 14 14 13 15 13 14 13
5 4 6 3 6 7 16 15 19 18 12 13 15 15 17 16 15 20 18 17 17 16 16 14 11 10 9 9 8 8 9 10 11 12 12 14 13 14 13 13 13 13 13 12 13 14 13 14 12
2 4 4 5 8 2 15 18 19 14 16 12 16 21 20 14 22 18 19 12 20 17 17 15 11 10 10 10 10 8 10 11 11 12 12 15 15 14 15 12 13 14 12 13 13 14 14 13 12
4 5 4 5 3 1 14 15 18 15 16 12 22 20 16 18 18 17 15 15 14 15 17 15 12 11 10 10 10 11 11 12 12 13 14 17 13 14 12 17 14 14 15 13 13 13 13 12 11
5 5 4 6 5 4 15 12 15 14 12 17 18 20 17 19 17 20 13 14 14 18 13 13 15 12 12 11 11 11 12 13 13 13 14 14 14 15 13 13 12 13 13 12 12 12 11 11 10
4 4 5 9 9 3 4 10 7 10 7 15 20 10 21 19 17 18 15 13 21 13 19 3 14 10 10 12 12 12 13 14 13 14 15 14 14 14 12 12 10 11 10 11 11 10 9 10 9
3 4 5 8 15 7 6 10 11 5 11 9 4 23 22 21 18 17 12 14 18 5 9 10 13 9 12 11 11 12 13 14 13 14 17 14 12 12 12 12 10 9 9 9 8 7 8 9 11
8 3 2 3 11 8 13 12 10 10 11 8 18 21 21 20 17 17 14 13 17 7 16 11 9 10 6 12 8 11 11 10 8 10 5 7 10 6 11 9 7 7 7 9 8 9 12 14 8
1 3 8 9 9 8 11 12 11 11 9 16 22 24 21 20 17 16 15 11 15 18 5 17 7 5 10 7 8 8 7 6 1 8 10 13 9 9 8 6 7 7 11 7 10 9 5 5 5
2 3 10 11 5 5 7 11 9 10 11 14 21 23 21 19 16 15 15 11 15 12 11 10 10 10 4 8 6 7 4 5 4 4 5 5 2 5 5 4 6 4 3 2 8 8 2 7 7
7 5 10 14 6 7 3 9 5 6 13 16 21 20 20 17 15 13 13 12 14 13 11 14 11 7 4 4 6 7 6 3 8 7 4 7 3 5 5 3 3 3 2 4 3 6 5 3 6
8 9 15 11 7 3 9 8 1 9 15 20 21 20 18 16 15 13 13 13 12 11 12 12 11 9 6 8 6 6 5 6 5 6 6 1 7 3 6 5 5 3 3 4 4 5 3 4 8
4 10 12 10 14 5 6 8 3 11 18 21 21 18 17 16 15 13 13 13 12 11 13 12 14 11 10 9 8 3 8 4 4 9 6 7 5 1 3 4 4 4 4 4 5 5 3 6 5
7 8 8 12 13 7 6 10 6 12 19 21 20 18 16 17 16 12 13 13 13 14 13 12 13 13 12 9 5 3 4 2 4 8 7 5 4 3 4 6 3 4 4 4 3 4 3 1 5
11 6 10 6 8 9 9 15 10 12 20 20 18 18 17 16 15 13 13 14 14 14 13 11 12 10 13 10 4 3 5 4 4 3 7 7 6 4 4 3 7 5 4 2 2 2 2 1 2
15 13 9 7 9 5 5 5 10 11 14 16 18 19 15 14 16 15 15 15 16 14 12 11 11 11 9 5 5 4 3 1 5 4 6 6 6 4 6 6 3 6 6 2 6 7 5 5 4
4 4 9 8 12 4 8 12 15 15 12 13 14 18 20 16 17 16 14 15 17 15 14 8 7 11 8 8 4 3 3 4 2 6 7 3 6 5 3 1 5 4 4 4 2 5 4 5 2
10 13 13 11 15 7 12 12 18 13 16 18 12 16 19 20 16 17 16 16 16 15 14 8 9 10 7 6 2 5 2 4 2 5 5 1 5 4 3 4 1 6 4 3 3 5 5 3 3
14 13 17 22 17 8 10 5 14 15 13 6 15 15 10 18 20 17 14 13 17 15 13 12 9 11 9 7 2 4 4 3 3 3 7 7 5 6 1 2 2 3 4 5 3 3 4 2 3
2 12 9 12 15 4 13 2 1 11 16 10 12 19 20 19 11 19 22 15 12 16 13 15 11 10 9 8 2 7 4 4 5 4 4 6 5 4 6 3 3 5 3 4 3 1 8 4 1
6 11 26 13 11 13 10 6 2 8 15 17 15 14 17 22 25 16 16 14 15 16 15 14 13 11 10 8 3 5 7 6 5 5 7 4 4 4 6 7 4 5 5 4 3 1 5 6 5
4 6 8 8 6 7 13 12 15 16 23 24 20 21 15 16 18 14 18 12 13 15 15 14 13 10 8 7 6 6 8 3 4 2 4 7 6 7 6 6 6 7 4 3 3 0 3 6 7
11 8 4 1 4 2 9 10 10 24 25 26 27 15 20 24 12 13 14 15 13 15 14 15 15 13 12 10 9 7 5 1 3 5 7 2 4 1 10 5 5 6 4 3 3 3 2 3 4
15 13 7 5 3 5 6 5 6 26 20 25 29 24 23 18 20 21 14 20 14 16 15 14 16 14 12 11 9 5 5 6 6 6 4 7 2 5 5 7 6 7 6 5 4 5 6 5 4
15 16 19 8 8 8 8 9 9 15 17 18 28 28 28 22 20 19 21 19 16 12 16 15 16 14 13 13 10 10 8 8 3 5 5 5 4 4 7 6 7 6 7 6 5 8 5 2 4
18 12 16 13 9 4 3 12 5 12 16 15 23 26 27 22 16 13 18 17 15 16 14 15 16 14 13 12 11 10 9 8 6 4 4 2 4 4 6 5 5 3 4 6 6 6 6 5 6
14 15 13 16 14 10 6 2 17 14 13 14 16 26 26 26 21 19 12 12 15 12 8 18 15 15 13 12 11 10 10 9 8 6 6 3 3 2 4 6 6 6 8 6 4 8 3 6 6
17 17 16 12 17 14 13 7 7 6 10 13 16 15 20 22 21 16 14 12 10 10 10 7 10 10 10 6 10 12 10 9 9 8 7 5 5 7 7 6 6 8 9 7 7 7 5 5 6
Wind_Direction
218 214 226 255 255 215 92 96 102 114 110 94 109 63 65 40 35 94 140 111 136 121 120 125 109 98 90 90 92 88 88 88 84 94 92 94 95 99 101 100 97 100 96 90 89 86 91 85 79
233 176 219 262 252 126 104 119 121 109 114 110 100 128 74 60 95 113 119 131 148 124 139 119 107 104 100 97 100 98 99 97 94 92 94 97 102 97 104 97 99 99 104 92 90 85 83 77 76
254 240 283 225 194 73 121 130 113 116 134 109 88 48 40 107 118 116 120 153 103 76 99 107 115 111 107 107 100 107 104 98 96 93 107 101 100 99 99 103 101 100 94 94 89 88 89 88 80
219 269 258 250 103 309 124 127 124 137 102 107 110 90 107 85 106 119 143 106 119 111 99 111 114 110 107 111 113 101 103 103 98 97 102 112 103 107 100 98 98 99 100 100 91 93 87 84 84
307 244 235 111 122 186 128 130 137 117 118 136 107 109 108 103 109 133 103 136 114 156 122 114 111 113 114 114 114 109 110 108 102 98 101 111 108 109 111 120 96 87 100 100 92 93 86 87 84
261 276 248 118 355 337 128 144 148 122 92 93 104 123 108 126 141 130 128 170 113 120 111 117 112 108 106 104 103 104 105 106 111 110 109 117 115 103 96 92 91 90 96 97 93 92 88 91 90
270 245 110 130 166 272 132 151 151 109 110 122 130 116 126 148 138 115 182 110 118 100 111 127 126 117 105 105 105 100 99 109 115 112 108 105 112 111 105 101 100 95 92 95 98 97 94 96 94
264 273 189 168 165 196 127 136 125 124 130 127 123 134 148 134 143 140 122 138 108 107 106 195 107 140 132 116 104 106 108 113 122 126 116 110 111 113 122 128 109 101 92 92 99 111 115 117 116
199 259 220 182 162 166 187 149 93 145 125 149 99 137 131 146 144 126 156 110 98 118 102 91 128 132 124 127 117 123 123 127 134 150 139 160 135 128 144 83 110 106 98 97 99 134 150 152 161
211 264 327 97 130 181 162 144 155 152 152 134 129 125 135 145 143 146 148 151 118 144 118 137 117 123 155 107 149 140 148 161 151 149 121 112 80 51 95 106 123 123 136 142 166 202 196 195 188
219 284 116 115 122 221 164 152 160 154 146 141 138 142 155 148 154 155 146 154 127 123 168 110 136 208 100 126 164 161 178 112 66 76 185 118 148 149 135 139 158 157 192 202 190 192 227 23 99
167 73 108 143 84 246 160 139 161 156 151 135 145 147 149 160 160 157 146 147 126 113 127 150 132 67 120 163 153 96 108 145 129 138 89 87 66 113 104 102 81 191 109 244 205 85 63 99 34
144 131 96 134 96 79 84 102 121 100 125 145 146 152 154 163 156 149 136 139 124 142 150 120 115 97 130 143 112 100 112 111 129 161 148 162 120 113 97 133 129 60 105 97 72 83 109 155 135
106 150 130 138 130 98 121 110 209 150 145 149 151 159 159 154 155 138 140 144 153 138 128 121 107 144 163 95 103 114 145 155 150 127 99 101 112 111 137 176 150 119 58 43 59 11 150 147 115
99 136 134 145 154 141 125 144 111 155 152 152 161 162 156 157 142 155 147 143 140 138 124 151 150 134 124 137 158 181 151 142 122 100 155 73 122 182 133 73 190 106 96 174 154 216 197 133 109
158 153 148 167 165 172 163 148 184 176 161 162 161 159 159 160 147 157 150 152 146 128 141 166 133 142 156 110 179 105 118 167 126 141 144 137 119 164 253 199 139 96 235 201 169 231 100 123 96
166 241 135 161 167 146 210 149 205 238 170 170 164 158 166 148 141 153 157 149 138 133 154 155 135 145 124 157 168 123 159 138 153 142 130 125 144 170 250 153 86 231 247 209 223 93 336 132 120
198 201 133 146 177 189 206 132 174 228 215 175 168 166 143 154 154 155 161 138 131 145 161 143 159 133 144 176 166 147 137 178 167 110 102 148 123 151 270 92 145 247 220 126 47 358 24 358 339
351 320 130 153 151 98 285 162 178 206 236 177 187 175 156 167 151 157 157 149 139 153 162 143 134 147 167 166 194 168 155 151 130 97 119 135 147 129 247 218 211 221 182 32 187 194 206 261 183
189 133 186 148 126 94 350 177 177 215 211 207 193 191 170 159 161 161 158 161 154 157 155 151 152 162 204 177 221 69 101 114 123 108 129 156 125 161 187 304 170 60 100 96 337 319 287 128 30
238 143 187 142 128 111 120 331 147 209 256 258 186 202 193 159 163 177 162 177 159 157 163 169 164 169 205 302 157 144 66 75 77 163 166 167 172 207 347 225 344 277 279 172 213 257 315 313 107
149 114 60 163 167 135 200 109 296 192 231 233 258 196 167 185 222 168 160 187 178 158 170 157 183 170 197 222 194 145 190 196 180 219 156 129 204 175 180 192 230 267 126 122 173 198 325 12 207
63 303 155 185 136 140 189 127 9 149 234 233 244 217 185 182 171 183 171 178 168 171 164 163 173 176 176 206 252 165 224 191 181 191 104 135 191 190 206 166 207 261 293 95 360 331 325 318 324
81 218 41 346 201 191 181 200 176 180 210 224 228 214 191 262 165 192 169 214 161 167 165 160 161 175 193 197 190 224 299 77 66 92 177 190 188 173 210 186 186 205 256 158 207 259 282 348 350
222 187 264 100 274 187 179 209 167 198 201 204 201 213 229 193 163 200 192 180 172 158 169 158 161 185 188 189 197 191 228 185 184 204 206 213 177 207 151 197 191 207 232 190 244 203 246 245 313
211 218 188 204 183 242 168 226 65 181 194 192 191 192 226 226 185 197 165 159 176 165 170 172 163 179 184 191 182 201 193 223 225 219 34 229 104 145 158 185 187 240 188 229 208 224 243 188 236
185 231 244 241 254 204 249 118 124 147 175 194 193 181 211 222 208 206 166 182 164 206 167 177 159 179 183 184 183 184 191 242 121 226 197 56 211 169 168 186 191 201 210 223 202 250 205 254 224
269 207 227 241 262 273 275 293 126 171 170 186 187 180 193 209 219 259 187 175 164 193 178 177 162 177 180 181 181 184 192 202 203 221 250 188 359 355 126 207 190 235 239 237 216 232 199 245 268
204 247 245 269 250 191 222 144 329 162 172 190 209 179 185 185 205 207 207 179 167 169 172 174 173 171 183 193 184 186 194 191 186 198 225 222 321 192 214 198 215 209 212 218 242 283 276 209 247
241 216 237 235 242 279 288 187 27 302 167 187 191 200 194 170 189 196 200 169 157 160 152 166 206 176 183 202 186 190 203 197 188 200 212 183 190 186 208 208 216 225 237 206 214 232 300 245 271